User: anonymous   Login
Location: Unspecified
(0.0000°N, 0.0000°E)
Time: 22:59:08
(UTC+00:00)
Language:

Geos 2 - Orbit

View from above orbital plane
View from above orbital plane
View from above satellite
View from above satellite

Ground track
Ground track

The orbit data is extracted from the following two-line orbital elements,

1 10981U 78071A   18016.25313450 -.00000137  00000-0  00000+0 0  9992
2 10981  12.4402 320.6361 0008021 308.7697 299.2712  0.99380958143423
Epoch (UTC): 16 January 2018 06:04:30
Eccentricity: 0.0008021
inclination: 12.4402°
perigee height: 36004 km
apogee height: 36072 km
right ascension of ascending node: 320.6361°
argument of perigee: 308.7697°
revolutions per day: 0.99380958
mean anomaly at epoch: 299.2712°
orbit number at epoch: 14342

The dashed part of the orbit path shows where the satellite is in the earth's shadow,  

DLR